Temp
6 6 8 9 10 8 8 8 8 10 10 10 11 11 11 13 12 12 12 13 13 13 13 13 12 12 12 12 11 11 11 11 10 10 10 10 10 9 9 9 9 8 7 7
5 6 9 8 7 7 8 8 9 9 9 9 10 11 11 12 12 12 13 13 13 13 13 13 13 12 12 12 12 11 11 11 11 10 10 9 9 9 9 9 9 8 8 7
4 8 8 7 6 6 7 7 8 8 8 8 8 9 10 11 12 12 12 12 12 13 13 13 13 12 12 12 12 12 12 11 11 11 10 10 9 9 9 9 9 8 8 7
3 5 5 6 5 5 6 7 7 7 7 7 8 8 9 10 11 12 12 12 12 13 13 13 13 12 12 12 12 12 11 11 11 11 10 10 10 9 9 8 9 8 8 7
4 4 5 4 5 4 5 5 6 7 6 7 8 8 9 9 9 10 11 12 12 12 12 12 13 13 12 12 12 12 11 11 11 11 11 10 10 9 9 8 8 8 8 7
2 3 3 3 3 3 4 5 5 6 6 6 7 7 8 9 9 10 11 12 12 12 13 13 13 12 12 12 12 12 12 11 11 11 11 11 10 10 9 8 8 8 7 7
2 2 3 3 3 4 3 3 4 4 3 5 6 7 7 8 9 9 10 11 12 12 12 12 12 12 13 13 13 12 12 12 12 11 11 11 10 10 9 8 8 8 7 7
0 1 3 3 3 3 3 4 3 1 2 4 5 6 6 8 8 8 9 9 10 11 11 12 12 12 12 13 13 12 12 12 11 11 11 11 10 9 8 8 8 7 7 7
1 1 1 2 2 2 2 2 3 3 4 3 4 5 5 7 7 8 9 9 9 10 11 10 11 12 12 12 13 13 12 12 12 11 11 10 9 8 8 7 7 7 6 6
0 0 1 1 1 2 1 2 1 3 2 1 3 1 4 6 6 7 9 9 9 9 10 10 10 11 12 13 13 13 13 12 12 11 11 10 8 7 7 7 7 7 6 6
-1 -1 -1 -0 0 0 1 1 1 2 2 -0 1 3 4 6 6 7 7 8 9 9 10 10 10 11 12 12 13 13 12 12 12 11 11 9 8 7 7 6 6 6 6 6
-2 -2 -1 -1 -1 0 1 1 -0 -0 -1 -1 -0 1 5 5 5 5 5 7 8 8 9 8 9 11 11 12 12 12 12 12 11 11 10 9 8 7 6 6 5 5 5 5
-3 -2 -2 -2 -0 0 -1 -1 -2 -2 -3 -3 -2 -0 6 3 4 3 3 5 6 6 8 8 9 11 11 12 12 11 12 11 11 11 10 8 7 7 6 6 5 5 4 5
-3 -3 -3 -3 -3 -3 -3 -2 -2 -3 -3 -3 -2 -1 2 5 3 3 3 3 5 4 6 7 7 9 10 11 10 11 11 10 10 10 9 8 7 7 6 6 5 5 4 4
-4 -5 -4 -4 -3 -4 -4 -3 -2 -3 -3 -3 -2 -2 1 3 3 2 1 2 3 3 6 7 7 8 8 8 9 10 10 10 9 9 8 8 7 7 7 6 6 6 4 4
-5 -5 -5 -5 -4 -4 -4 -3 -3 -3 -3 -3 -2 -1 1 2 3 2 2 3 3 3 4 6 6 7 6 7 7 8 9 9 9 8 8 7 7 7 6 6 7 4 4 3
-6 -6 -6 -5 -4 -5 -5 -3 -3 -3 -3 -2 -2 -1 0 0 2 2 2 2 3 3 4 4 5 5 5 6 7 7 7 7 7 7 7 7 6 6 6 6 5 3 2 3
-6 -6 -6 -6 -6 -6 -4 -4 -3 -3 -3 -2 -2 -1 -1 -1 0 1 0 1 2 3 3 4 4 4 3 5 6 7 7 7 7 7 7 7 6 6 6 6 5 5 2 1
-4 -5 -6 -6 -6 -5 -4 -2 -2 -3 -3 -2 -2 -1 -1 -1 -1 0 -1 0 1 2 3 3 4 5 5 5 5 6 6 6 7 7 7 7 7 7 6 6 6 5 3 2
-4 -4 -6 -6 -6 -7 -3 -1 -3 -4 -4 -3 -2 -2 -2 -2 -2 -1 -1 1 1 1 2 3 4 4 4 5 5 6 6 6 6 6 7 6 6 6 6 5 5 3 1 1
-6 -5 -6 -6 -6 -5 -2 -1 -4 -5 -2 -1 -2 -2 -2 -2 -2 -1 -1 -0 -1 -0 1 2 4 5 5 4 5 6 6 6 6 6 6 6 5 5 5 4 3 1 1 1
-5 -5 -5 -5 -6 -6 -2 -3 -4 -2 -3 -2 -3 -3 -3 -2 -2 -2 -2 -1 -0 -0 0 0 1 4 5 5 5 5 5 5 5 5 5 5 5 5 4 3 2 -0 0 1
-6 -4 -4 -5 -4 -3 -3 -3 -3 -4 -4 -3 -3 -3 -3 -2 -2 -2 -2 -1 -1 0 1 0 1 3 4 5 5 5 5 5 5 5 5 5 4 4 4 3 2 1 -0 -0
-6 -5 -6 -5 -4 -3 -4 -4 -4 -4 -3 -3 -3 -4 -4 -3 -3 -2 -2 -1 -1 0 0 1 1 2 2 2 3 4 4 4 4 4 4 4 4 4 4 3 1 0 -1 -3
-5 -6 -6 -6 -5 -5 -5 -4 -4 -4 -4 -4 -4 -4 -4 -4 -3 -2 -2 -1 -1 -0 -2 -1 -1 -1 0 1 3 3 3 4 4 4 3 3 3 3 2 1 -0 -1 -4 -5
-4 -5 -7 -6 -4 -6 -5 -4 -4 -4 -3 -3 -4 -4 -4 -5 -4 -3 -2 -2 -2 -2 -2 -2 -2 -2 -1 -0 1 1 2 2 2 1 2 2 2 1 0 -0 -2 -4 -5 -7
Height
3113 3118 3113 3119 3122 3124 3127 3127 3125 3125 3131 3133 3128 3125 3128 3130 3129 3131 3132 3134 3136 3135 3136 3138 3138 3137 3139 3141 3142 3142 3141 3143 3144 3146 3147 3149 3150 3151 3151 3152 3152 3152 3152 3152
3107 3104 3112 3117 3116 3120 3120 3121 3115 3119 3125 3129 3122 3119 3120 3123 3121 3123 3125 3125 3129 3131 3132 3135 3137 3134 3134 3135 3135 3137 3137 3137 3138 3139 3141 3141 3142 3144 3145 3146 3146 3146 3147 3147
3100 3101 3109 3107 3108 3112 3111 3114 3113 3114 3120 3120 3118 3112 3109 3112 3114 3117 3118 3120 3122 3125 3127 3129 3130 3129 3128 3128 3130 3131 3132 3132 3132 3133 3134 3135 3136 3137 3137 3139 3140 3140 3141 3142
3095 3096 3098 3099 3101 3106 3103 3109 3110 3110 3114 3111 3116 3105 3099 3100 3105 3107 3112 3113 3115 3118 3120 3121 3123 3122 3119 3120 3123 3124 3124 3125 3126 3126 3125 3126 3128 3129 3131 3132 3134 3134 3134 3136
3084 3088 3091 3092 3093 3103 3097 3105 3105 3106 3106 3108 3106 3106 3074 3093 3095 3098 3101 3105 3108 3111 3113 3114 3115 3116 3113 3112 3112 3115 3116 3118 3118 3116 3117 3119 3120 3122 3124 3124 3126 3127 3126 3128
3079 3083 3085 3085 3090 3094 3096 3096 3097 3098 3097 3097 3087 3102 3076 3080 3084 3088 3092 3094 3097 3102 3103 3103 3105 3108 3106 3104 3103 3105 3106 3109 3108 3107 3109 3111 3111 3113 3116 3117 3117 3119 3120 3121
3080 3078 3081 3084 3083 3088 3092 3093 3091 3089 3089 3080 3084 3095 3081 3071 3078 3082 3084 3084 3086 3091 3093 3094 3096 3097 3096 3093 3091 3094 3097 3100 3099 3099 3100 3102 3103 3105 3107 3108 3108 3110 3112 3113
3077 3073 3076 3078 3080 3084 3085 3088 3087 3087 3085 3080 3079 3076 3070 3070 3072 3075 3076 3078 3081 3081 3084 3085 3086 3087 3085 3085 3081 3084 3086 3088 3089 3091 3090 3094 3095 3097 3099 3100 3100 3102 3103 3105
3076 3070 3073 3075 3077 3080 3077 3078 3079 3079 3075 3074 3067 3064 3065 3055 3056 3066 3068 3070 3070 3071 3072 3071 3070 3071 3072 3071 3072 3073 3075 3078 3079 3081 3082 3083 3086 3088 3090 3091 3091 3093 3095 3096
3073 3064 3065 3068 3069 3070 3072 3074 3073 3072 3068 3064 3054 3056 3051 3043 3050 3054 3057 3061 3062 3061 3059 3060 3059 3059 3060 3060 3062 3064 3065 3067 3071 3073 3073 3074 3078 3080 3081 3081 3082 3083 3086 3086
3071 3067 3062 3062 3064 3063 3064 3064 3067 3068 3067 3061 3053 3044 3047 3042 3049 3048 3047 3052 3056 3053 3052 3050 3048 3048 3047 3048 3049 3054 3056 3059 3061 3063 3063 3068 3069 3069 3071 3072 3072 3073 3074 3075
3069 3065 3056 3053 3057 3059 3057 3057 3058 3060 3059 3055 3050 3039 3043 3043 3044 3042 3039 3039 3038 3038 3041 3041 3038 3038 3037 3037 3039 3044 3048 3050 3053 3053 3056 3059 3060 3061 3061 3062 3064 3064 3063 3066
3067 3063 3055 3046 3053 3052 3052 3054 3056 3057 3055 3052 3047 3033 3030 3031 3028 3030 3029 3031 3030 3029 3031 3030 3029 3028 3027 3029 3031 3036 3039 3043 3045 3045 3047 3049 3051 3052 3053 3053 3055 3056 3055 3056
3061 3058 3056 3047 3048 3052 3049 3046 3050 3052 3046 3043 3040 3031 3029 3015 3022 3021 3019 3019 3020 3019 3020 3021 3020 3018 3016 3021 3025 3029 3031 3033 3036 3037 3039 3040 3041 3041 3043 3045 3045 3045 3046 3046
3054 3050 3048 3041 3042 3043 3042 3039 3038 3041 3038 3041 3028 3035 3026 3019 3012 3014 3013 3011 3008 3009 3010 3011 3013 3013 3014 3016 3018 3019 3021 3024 3027 3029 3029 3031 3030 3032 3035 3037 3036 3036 3035 3035
3044 3041 3040 3031 3035 3034 3031 3026 3027 3029 3027 3029 3027 3019 3021 3015 3008 3007 3006 3005 3001 3001 3001 3003 3005 3004 3004 3006 3011 3013 3014 3016 3019 3019 3019 3021 3021 3023 3026 3028 3026 3026 3027 3027
3037 3037 3036 3025 3032 3026 3019 3012 3017 3016 3017 3018 3015 3012 3009 3008 3003 3001 2997 2995 2996 2996 2992 2992 2993 2996 3000 3000 3003 3004 3006 3008 3009 3010 3011 3013 3013 3016 3016 3017 3015 3016 3016 3016
3027 3029 3030 3023 3026 3018 3003 3008 3008 3006 3005 3008 3007 3004 3001 2999 2994 2991 2991 2985 2983 2982 2983 2982 2983 2986 2984 2991 2993 2994 2997 2998 3000 3001 3002 3004 3005 3007 3007 3006 3007 3005 3006 3005
3015 3017 3017 3017 3014 3005 3000 2996 2999 2998 2993 2999 2998 2995 2992 2991 2983 2981 2982 2978 2976 2975 2972 2973 2973 2974 2977 2978 2979 2981 2984 2987 2988 2989 2992 2993 2995 2996 2997 2997 2997 2995 2995 2995
3008 3007 3009 3007 3004 2997 2990 2989 2991 2992 2985 2986 2988 2986 2983 2980 2974 2969 2969 2967 2966 2965 2963 2961 2962 2962 2963 2964 2966 2967 2970 2974 2977 2980 2983 2984 2986 2988 2987 2988 2986 2986 2985 2988
2997 2997 2997 2996 2994 2985 2979 2981 2985 2986 2976 2972 2974 2976 2974 2971 2969 2961 2960 2958 2956 2954 2952 2947 2946 2949 2953 2956 2956 2955 2955 2958 2966 2970 2971 2974 2975 2977 2978 2978 2976 2976 2977 2977
2987 2990 2987 2987 2985 2977 2971 2974 2974 2967 2967 2966 2965 2965 2964 2961 2958 2955 2949 2944 2942 2940 2939 2937 2933 2934 2940 2944 2944 2942 2941 2948 2951 2954 2959 2962 2965 2965 2967 2967 2966 2967 2968 2967
2977 2973 2972 2974 2966 2964 2963 2962 2961 2961 2960 2957 2956 2956 2955 2951 2947 2945 2940 2934 2932 2929 2926 2925 2923 2919 2922 2928 2930 2932 2933 2934 2937 2943 2946 2948 2951 2953 2955 2955 2955 2955 2956 2954
2964 2964 2962 2962 2951 2950 2952 2954 2952 2952 2947 2945 2945 2943 2941 2938 2936 2933 2929 2927 2923 2918 2916 2914 2915 2912 2911 2912 2915 2918 2920 2923 2927 2929 2932 2935 2937 2939 2940 2941 2941 2941 2940 2945
2952 2953 2949 2948 2938 2940 2943 2943 2940 2937 2936 2936 2934 2931 2928 2926 2923 2920 2916 2914 2910 2909 2907 2904 2905 2902 2899 2904 2905 2906 2909 2912 2913 2916 2919 2922 2925 2927 2927 2927 2927 2928 2936 2944
2936 2939 2942 2934 2932 2934 2931 2930 2930 2928 2925 2925 2923 2919 2917 2916 2912 2909 2904 2904 2903 2901 2899 2898 2895 2894 2894 2892 2896 2898 2899 2901 2905 2908 2907 2907 2908 2910 2912 2915 2919 2929 2936 2940
Wind_Speed
33 33 43 40 39 37 34 29 28 36 31 29 35 38 32 29 32 34 36 27 29 26 26 27 27 31 32 31 31 32 34 33 35 35 35 32 31 27 30 29 24 22 24 24
33 42 41 37 39 34 34 37 44 42 35 30 36 41 39 38 37 29 30 32 29 30 25 28 30 34 35 36 36 36 38 39 38 37 36 35 32 32 29 30 28 24 24 25
36 46 33 40 39 34 37 36 41 40 33 32 32 40 46 45 43 38 32 29 37 35 34 37 32 33 36 40 39 36 37 39 41 41 40 39 35 36 35 33 35 29 27 25
27 36 36 35 28 30 37 37 38 37 35 29 28 30 44 45 42 45 42 37 25 32 36 35 39 37 36 38 39 37 39 37 39 42 45 44 45 41 38 34 35 33 28 27
35 27 31 37 44 33 33 31 33 34 36 35 37 20 56 43 39 41 39 40 39 32 35 38 38 37 44 44 46 44 40 40 40 42 43 43 44 40 38 37 36 36 33 29
30 27 19 27 27 28 26 33 33 34 33 19 47 26 54 50 48 49 44 43 43 41 39 39 38 40 42 46 45 46 47 43 43 44 44 43 43 41 38 34 37 40 36 33
31 36 34 28 29 28 23 22 12 11 14 18 37 24 48 44 35 34 33 33 39 40 41 41 40 41 44 45 49 47 46 46 46 48 47 42 40 41 37 36 36 40 40 38
10 15 14 13 31 35 34 28 12 11 7 16 34 22 52 52 48 42 39 42 36 33 38 41 42 44 41 49 48 51 48 43 43 42 48 44 40 44 38 39 37 40 40 39
8 16 16 19 20 20 11 23 37 29 33 19 26 28 35 60 62 58 49 41 44 49 47 46 44 45 47 43 45 48 49 46 43 42 45 44 40 42 41 39 35 37 43 41
20 31 11 14 17 25 25 27 23 13 10 18 19 26 30 55 44 42 44 52 38 36 38 28 33 42 45 42 42 45 46 44 42 41 43 42 39 40 40 40 38 35 41 45
12 13 27 25 19 12 16 12 13 21 14 4 6 12 35 52 42 43 37 45 46 48 38 44 48 34 37 41 40 46 46 43 42 40 42 36 39 39 41 39 37 35 40 49
9 20 29 31 29 26 17 25 19 12 8 15 15 19 39 42 41 26 29 25 29 34 45 35 42 42 35 38 45 48 45 44 43 41 39 35 36 39 40 37 37 37 41 41
18 13 24 26 13 4 2 5 13 16 18 10 10 7 43 36 34 39 44 45 44 44 32 27 31 34 42 44 43 50 43 43 42 40 39 34 35 37 38 36 38 37 38 48
14 21 26 27 24 27 34 36 31 21 13 22 27 40 41 48 39 34 31 32 37 33 39 41 28 20 21 38 43 44 43 34 34 36 36 35 37 34 32 36 39 36 42 41
18 19 21 29 29 26 27 32 34 29 37 28 46 37 42 49 53 51 39 33 32 35 36 39 32 24 26 28 28 31 34 32 30 32 34 36 34 31 31 35 39 34 43 47
29 27 27 41 39 36 35 46 44 42 45 39 37 40 37 41 46 47 47 45 28 27 29 30 32 26 28 27 30 29 26 27 29 31 32 32 33 33 31 34 37 40 42 53
33 34 33 40 36 34 34 45 26 32 33 35 33 42 41 43 46 47 43 41 44 35 31 29 32 38 33 32 34 32 32 31 29 32 33 32 32 33 33 38 37 45 48 48
38 35 33 36 31 21 40 34 27 27 28 26 31 34 39 39 44 44 43 40 41 44 38 35 35 35 35 32 37 37 42 40 36 37 36 33 34 36 37 37 39 41 43 47
32 37 36 29 32 38 50 50 46 39 44 38 37 29 35 43 47 46 31 33 35 40 47 39 36 37 33 34 36 36 41 42 44 43 43 38 36 39 39 40 40 44 41 49
17 18 33 26 13 11 46 38 38 31 33 39 33 32 37 29 35 41 40 33 31 33 41 50 40 41 35 33 39 41 42 47 46 43 41 42 41 41 42 45 44 42 35 43
22 24 30 31 23 27 48 41 29 18 44 26 35 30 32 42 36 41 43 41 38 40 39 38 50 49 43 41 41 45 48 42 41 44 46 45 41 39 40 45 45 40 40 52
22 20 28 25 17 20 44 39 34 32 26 26 24 30 37 40 43 46 51 46 47 47 45 33 38 47 54 52 49 53 55 47 47 43 44 45 42 40 40 42 40 41 47 55
36 43 42 31 36 40 39 41 38 33 32 36 35 38 40 45 49 51 48 47 45 48 41 40 40 35 39 53 57 58 57 52 47 45 47 46 46 42 43 46 42 49 51 58
45 41 39 41 50 50 47 47 50 45 44 39 41 44 45 46 40 44 42 45 42 40 42 35 45 29 21 27 42 47 47 48 47 49 49 52 52 47 48 50 47 50 52 49
48 37 40 43 57 53 44 39 39 33 37 37 37 38 38 39 45 47 47 44 40 38 38 43 34 21 19 21 30 33 41 43 43 47 50 55 57 50 52 48 45 47 39 34
53 51 47 51 40 39 46 45 36 36 35 39 40 40 40 41 42 42 46 38 39 39 35 33 42 27 20 18 21 24 26 29 31 38 54 63 59 58 54 44 38 34 30 34
Wind_Direction
233 232 240 246 250 247 250 251 254 255 256 265 261 264 260 250 256 267 259 250 258 256 247 248 264 269 270 271 265 271 274 268 263 265 264 270 275 274 276 274 273 265 255 255
230 237 250 251 251 251 252 253 256 262 261 257 263 265 261 252 255 260 259 241 259 251 242 241 262 267 261 263 266 262 265 270 268 267 265 266 267 269 272 270 266 262 253 252
234 249 250 247 249 249 247 247 256 263 271 264 271 274 265 259 259 252 255 254 250 249 254 255 255 262 262 259 261 261 264 267 268 267 265 264 261 259 268 275 266 262 252 252
243 245 242 246 249 250 254 255 262 262 261 260 262 271 268 261 262 256 249 255 257 246 253 259 256 256 257 258 259 261 262 262 261 265 265 271 274 277 277 278 270 261 251 255
238 256 253 245 243 249 257 271 267 269 262 266 263 254 264 269 270 266 262 258 250 252 251 258 265 267 265 269 265 266 262 260 263 263 269 271 271 272 272 274 264 257 252 251
239 232 234 241 245 246 251 255 262 264 266 252 257 256 269 262 263 267 264 261 258 250 251 253 258 263 264 264 264 262 262 261 265 260 267 270 274 274 270 277 266 254 250 247
252 252 243 243 258 242 253 265 277 263 258 255 254 252 258 265 267 269 278 271 265 262 249 249 256 260 261 261 261 257 256 257 262 269 269 270 274 270 273 275 272 253 251 249
288 296 277 284 253 266 265 256 242 243 248 261 259 245 252 261 262 264 263 262 262 260 267 266 262 259 264 258 263 259 258 255 257 266 268 268 270 266 271 272 274 255 249 249
275 271 290 277 280 282 266 249 254 269 270 265 258 263 264 263 261 263 263 267 268 273 267 262 262 257 258 257 258 258 260 255 261 265 263 264 268 262 269 273 279 258 249 246
273 282 302 295 282 272 268 275 278 261 272 261 250 243 248 263 270 276 269 257 265 268 264 266 270 266 250 252 250 250 257 258 263 266 266 268 266 265 267 276 274 272 253 247
345 300 301 299 288 289 290 293 263 260 261 246 269 260 266 277 291 288 286 278 260 264 262 271 284 273 256 246 247 249 250 255 258 266 269 263 262 268 268 274 272 277 271 247
315 320 298 297 296 293 278 275 282 251 264 261 255 270 274 273 279 278 278 263 265 264 269 276 283 268 264 246 247 246 248 251 258 266 269 262 265 271 268 270 275 274 268 243
308 285 307 304 291 240 153 317 324 304 303 264 308 289 264 285 288 285 285 272 266 273 269 273 287 256 259 253 247 243 251 253 256 260 266 264 271 275 275 272 272 277 257 245
294 277 268 264 270 284 292 293 295 286 254 273 279 293 294 278 293 293 311 306 282 283 270 266 287 285 272 248 246 247 252 252 256 254 266 269 277 273 275 276 277 274 253 259
276 287 287 277 277 284 287 280 275 270 269 270 286 283 293 286 295 301 298 302 300 278 264 258 268 280 276 275 269 262 263 261 261 260 269 273 269 266 268 274 280 279 265 255
276 283 286 283 284 292 291 281 279 279 278 276 281 281 287 294 301 301 308 286 295 277 283 270 264 266 265 267 277 276 270 270 265 279 274 276 261 262 266 275 282 265 256 258
275 275 281 281 288 294 285 278 282 282 277 277 266 281 291 284 286 292 299 301 280 286 278 273 265 263 267 266 273 269 268 264 271 273 274 270 263 261 269 273 277 261 261 252
269 270 270 266 281 271 274 284 280 278 282 280 279 288 289 284 288 291 295 296 294 270 276 267 269 265 265 257 264 266 267 268 270 272 271 269 264 263 265 271 276 274 258 257
269 266 253 249 255 266 275 280 280 276 279 279 279 279 289 285 279 286 284 286 291 281 264 264 264 262 259 259 253 258 262 268 266 266 263 263 269 268 265 267 275 276 265 259
265 266 238 243 241 250 267 286 283 289 272 276 274 282 283 279 290 284 299 297 295 288 270 264 257 260 253 253 256 262 263 265 265 261 261 263 262 266 271 267 272 268 259 254
261 245 227 242 246 258 273 284 288 261 280 310 279 275 269 287 288 292 302 295 295 299 302 274 257 252 256 258 250 254 259 261 259 259 262 260 253 263 270 266 269 258 247 251
247 248 249 243 239 257 278 278 260 288 295 280 276 273 274 275 278 288 299 299 297 296 306 286 270 257 248 255 257 253 262 270 269 261 261 263 254 263 271 271 267 253 246 250
250 255 252 239 252 272 271 277 279 275 274 276 271 272 277 276 281 290 293 298 301 299 294 303 280 247 243 243 251 256 261 265 266 262 263 261 253 261 259 261 258 262 245 245
268 268 257 268 269 274 274 271 276 281 282 282 284 283 282 283 281 289 289 296 296 299 296 284 278 251 245 256 256 257 259 265 266 263 256 255 250 256 255 256 254 262 247 243
267 259 265 274 279 279 274 285 287 287 286 284 283 284 284 283 279 284 287 291 294 296 291 293 288 289 274 267 254 256 261 262 264 255 252 252 248 251 248 249 253 259 241 248
264 276 264 269 288 281 289 287 282 285 282 290 287 288 285 283 283 282 285 287 286 284 286 282 297 297 282 275 260 267 273 274 267 270 252 248 244 244 240 244 245 232 234 214